Clermont County, Batavia, OH

9:10 PM EST on December 12, 2018 (GMT -0500)
Clermont County, Batavia

Weather History for KI69 - December, 2018

Change the Weather History Date:

Thursday, December 6, 2018

  Actual Average (KLUK) Record (KLUK)
Temperature  
Mean Temperature 34 °F -  
Max Temperature 42 °F 46 °F 73 °F (1998)
Min Temperature 26 °F 27 °F 2 °F (1977)
Degree Days  
Heating Degree Days 32    
Moisture  
Dew Point 26 °F    
Average Humidity 76    
Maximum Humidity 98    
Minimum Humidity 57    
Precipitation  
Precipitation 0.00 in - - ()
Sea Level Pressure  
Sea Level Pressure 30.28 in    
Wind  
Wind Speed 7 mph (WSW)    
Max Wind Speed 20 mph    
Max Gust Speed 24 mph    
Visibility 10 miles    
Events Snow    
Averages and records for this station are not official NWS values.
T = Trace of Precipitation, MM = Missing Value Source: NWS Daily Summary

Daily Weather History Graph

Daily Weather History Graph

Search for Another Location

Airport or City:

Astronomy

Dec. 06, 2018 Rise Set
Actual Time 7:41 AM EST 5:14 PM EST
Civil Twilight 7:11 AM EST 5:43 PM EST
Nautical Twilight 6:38 AM EST 6:17 PM EST
Astronomical Twilight 6:06 AM EST 6:49 PM EST
Moon 6:49 AM EST (12/6) 5:08 PM EST (12/6)
Length of Visible Light 10h 31m
Length of Day
9h 32m
Waning Crescent, 0% of the Moon is Illuminated
Dec 6
Waning Crescent
Dec 7
New
Dec 15
First Quarter
Dec 22
Full
Dec 29
Last Quarter

Hourly Weather History & Observations

Time (EST) Temp. Windchill Dew Point Humidity Pressure Visibility Wind Dir Wind Speed Gust Speed Precip Events Conditions
12:15 AM 27.7 °F 22.4 °F 19.8 °F 72% 30.30 in 10.0 mi SSW 4.6 mph - N/A   Mostly Cloudy
12:35 AM 27.7 °F 23.8 °F 20.1 °F 73% 30.30 in 10.0 mi SSW 3.5 mph - N/A   Overcast
12:55 AM 27.3 °F 22.0 °F 20.1 °F 74% 30.30 in 10.0 mi SSW 4.6 mph - N/A   Overcast
1:15 AM 27.3 °F 20.9 °F 20.3 °F 75% 30.30 in 10.0 mi SSW 5.8 mph - N/A   Overcast
1:35 AM 27.0 °F 21.6 °F 20.3 °F 76% 30.31 in 10.0 mi SSW 4.6 mph - N/A   Scattered Clouds
1:55 AM 27.0 °F 21.6 °F 20.7 °F 77% 30.30 in 10.0 mi SSW 4.6 mph - N/A   Scattered Clouds
2:15 AM 26.6 °F 20.0 °F 20.7 °F 78% 30.29 in 10.0 mi South 5.8 mph - N/A   Clear
2:35 AM 26.4 °F 19.8 °F 20.5 °F 78% 30.30 in 10.0 mi SSW 5.8 mph - N/A   Clear
2:55 AM 26.6 °F 21.2 °F 20.8 °F 79% 30.30 in 10.0 mi SSW 4.6 mph - N/A   Clear
3:15 AM 26.8 °F 21.4 °F 20.8 °F 78% 30.30 in 10.0 mi SSW 4.6 mph - N/A   Clear
3:35 AM 26.4 °F 19.8 °F 20.8 °F 79% 30.30 in 10.0 mi SSW 5.8 mph - N/A   Clear
3:55 AM 26.6 °F 19.1 °F 20.8 °F 79% 30.29 in 10.0 mi SSW 6.9 mph - N/A   Clear
4:15 AM 26.8 °F 18.5 °F 20.8 °F 78% 30.29 in 10.0 mi SSW 8.1 mph - N/A   Clear
4:35 AM 26.6 °F 20.0 °F 20.8 °F 79% 30.29 in 10.0 mi SSW 5.8 mph - N/A   Clear
4:55 AM 26.6 °F 17.5 °F 20.7 °F 78% 30.28 in 10.0 mi SSW 9.2 mph - N/A   Clear
5:15 AM 26.6 °F 18.2 °F 20.8 °F 79% 30.27 in 10.0 mi SSW 8.1 mph - N/A   Clear
5:35 AM 27.0 °F 17.3 °F 21.0 °F 78% 30.27 in 10.0 mi SSW 10.4 mph - N/A   Clear
5:55 AM 27.1 °F 18.2 °F 21.2 °F 78% 30.29 in 10.0 mi SSW 9.2 mph - N/A   Clear
6:15 AM 27.0 °F 18.7 °F 21.2 °F 79% 30.28 in 10.0 mi SSW 8.1 mph - N/A   Clear
6:35 AM 27.0 °F 18.7 °F 21.2 °F 79% 30.28 in 10.0 mi SSW 8.1 mph - N/A   Clear
6:55 AM 27.1 °F 21.8 °F 21.6 °F 80% 30.28 in 10.0 mi SSW 4.6 mph - N/A   Clear
7:15 AM 27.3 °F 20.9 °F 21.7 °F 80% 30.28 in 10.0 mi SSW 5.8 mph - N/A   Clear
7:35 AM 27.3 °F 19.9 °F 21.9 °F 80% 30.28 in 10.0 mi SSW 6.9 mph - N/A   Clear
7:55 AM 27.5 °F 19.3 °F 22.1 °F 80% 30.28 in 10.0 mi SSW 8.1 mph - N/A   Clear
8:15 AM 27.9 °F 20.6 °F 22.5 °F 80% 30.28 in 10.0 mi SSW 6.9 mph - N/A   Scattered Clouds
8:35 AM 28.2 °F 19.5 °F 22.8 °F 80% 30.28 in 10.0 mi SSW 9.2 mph - N/A   Scattered Clouds
8:55 AM 28.9 °F 19.8 °F 23.0 °F 78% 30.28 in 10.0 mi SSW 10.4 mph - N/A   Scattered Clouds
9:15 AM 30.2 °F 21.9 °F 23.9 °F 77% 30.27 in 10.0 mi SSW 9.2 mph - N/A   Mostly Cloudy
9:35 AM 30.9 °F 23.5 °F 24.1 °F 76% 30.28 in 10.0 mi SW 8.1 mph 17.3 mph N/A   Overcast
9:56 AM 31.1 °F 25.4 °F 24.4 °F 76% 30.28 in 10.0 mi SSW 5.8 mph 9.2 mph N/A   Overcast
10:15 AM 31.8 °F 23.9 °F 24.8 °F 75% 30.27 in 10.0 mi SSW 9.2 mph - N/A   Overcast
10:35 AM 32.0 °F 24.2 °F 25.2 °F 76% 30.27 in 10.0 mi SSW 9.2 mph 16.1 mph N/A   Overcast
10:55 AM 32.7 °F 24.5 °F 25.5 °F 75% 30.26 in 10.0 mi SW 10.4 mph - N/A   Overcast
11:15 AM 33.8 °F 27.0 °F 26.4 °F 74% 30.26 in 10.0 mi SSW 8.1 mph - N/A   Overcast
11:35 AM 34.7 °F 28.1 °F 26.6 °F 72% 30.25 in 10.0 mi SSW 8.1 mph - N/A   Mostly Cloudy
11:55 AM 36.5 °F 28.2 °F 26.8 °F 68% 30.24 in 10.0 mi SW 12.7 mph - N/A   Mostly Cloudy
12:15 PM 37.6 °F 29.6 °F 27.3 °F 66% 30.24 in 10.0 mi SW 12.7 mph - N/A   Overcast
12:35 PM 38.5 °F 30.3 °F 27.0 °F 63% 30.23 in 10.0 mi SW 13.8 mph 23.0 mph N/A   Overcast
12:55 PM 39.4 °F 32.3 °F 27.3 °F 62% 30.23 in 10.0 mi SW 11.5 mph 19.6 mph N/A   Overcast
1:15 PM 40.6 °F 32.7 °F 27.5 °F 59% 30.22 in 10.0 mi SW 15.0 mph 18.4 mph N/A   Mostly Cloudy
1:35 PM 41.0 °F 34.3 °F 27.9 °F 60% 30.22 in 10.0 mi WSW 11.5 mph - N/A   Overcast
1:55 PM 41.4 °F 34.7 °F 27.5 °F 58% 30.22 in 10.0 mi WSW 11.5 mph 19.6 mph N/A   Overcast
2:15 PM 41.9 °F 34.3 °F 27.7 °F 57% 30.22 in 10.0 mi WSW 15.0 mph - N/A   Overcast
2:35 PM 41.9 °F 33.1 °F 28.0 °F 58% 30.22 in 10.0 mi WSW 19.6 mph 24.2 mph N/A   Overcast
2:55 PM 41.9 °F 34.3 °F 28.9 °F 60% 30.21 in 10.0 mi WSW 15.0 mph 20.7 mph N/A   Overcast
3:15 PM 41.4 °F 36.2 °F 28.9 °F 61% 30.22 in 10.0 mi WSW 8.1 mph - N/A   Overcast
3:35 PM 41.4 °F 34.7 °F 28.8 °F 61% 30.22 in 10.0 mi WSW 11.5 mph - N/A   Overcast
3:55 PM 41.0 °F 35.2 °F 29.3 °F 63% 30.23 in 10.0 mi West 9.2 mph - N/A   Overcast
4:15 PM 41.0 °F 36.4 °F 29.3 °F 63% 30.24 in 10.0 mi West 6.9 mph - N/A   Overcast
4:35 PM 40.6 °F 33.4 °F 29.3 °F 64% 30.24 in 10.0 mi WSW 12.7 mph - N/A   Overcast
4:55 PM 39.7 °F 33.7 °F 30.9 °F 71% 30.24 in 10.0 mi WSW 9.2 mph 16.1 mph N/A   Overcast
5:15 PM 39.6 °F 34.7 °F 30.7 °F 71% 30.24 in 10.0 mi WSW 6.9 mph - N/A   Overcast
5:35 PM 39.2 °F 35.0 °F 30.2 °F 70% 30.24 in 10.0 mi West 5.8 mph - N/A   Overcast
5:55 PM 38.7 °F 35.2 °F 30.0 °F 71% 30.24 in 10.0 mi WSW 4.6 mph - N/A   Overcast
6:15 PM 39.2 °F 37.0 °F 29.8 °F 69% 30.24 in 10.0 mi WSW 3.5 mph - N/A   Overcast
6:35 PM 39.2 °F 37.0 °F 29.3 °F 68% 30.25 in 10.0 mi WNW 3.5 mph - N/A   Overcast
7:15 PM 39.2 °F 33.0 °F 29.5 °F 68% 30.27 in 10.0 mi WNW 9.2 mph - N/A   Overcast
7:35 PM 36.3 °F 28.4 °F 33.4 °F 89% 30.29 in 7.0 mi NW 11.5 mph - N/A Snow Light Snow
7:55 PM 33.6 °F 26.2 °F 32.2 °F 94% 30.30 in 2.5 mi NW 9.2 mph 17.3 mph N/A Snow Light Snow
8:15 PM 33.1 °F 30.0 °F 32.4 °F 97% 30.31 in 3.0 mi NW 3.5 mph - N/A Snow Light Snow
8:35 PM 32.9 °F 29.8 °F 32.4 °F 98% 30.31 in 4.0 mi NW 3.5 mph - N/A Snow Light Snow
8:55 PM 33.1 °F 27.7 °F 32.4 °F 97% 30.31 in 5.0 mi NNW 5.8 mph - N/A Snow Light Snow
9:15 PM 32.9 °F 26.7 °F 32.2 °F 97% 30.32 in 5.0 mi NNW 6.9 mph - N/A Snow Light Snow
9:35 PM 32.9 °F 27.5 °F 31.8 °F 96% 30.32 in 7.0 mi NNW 5.8 mph - N/A Snow Light Snow
9:55 PM 32.7 °F 26.4 °F 31.5 °F 95% 30.33 in 10.0 mi NW 6.9 mph - N/A   Overcast
10:15 PM 32.5 °F 24.8 °F 31.1 °F 94% 30.34 in 10.0 mi NNW 9.2 mph - N/A   Overcast
10:35 PM 32.5 °F 26.2 °F 31.1 °F 94% 30.35 in 10.0 mi North 6.9 mph - N/A   Overcast
10:55 PM 32.2 °F 25.0 °F 29.3 °F 89% 30.36 in 10.0 mi North 8.1 mph - N/A   Overcast
11:15 PM 32.0 °F 25.6 °F 29.3 °F 90% 30.37 in 10.0 mi NNW 6.9 mph - N/A   Overcast
11:35 PM 32.0 °F 26.4 °F 28.4 °F 87% 30.38 in 10.0 mi NNW 5.8 mph - N/A   Overcast
11:55 PM 31.5 °F 24.9 °F 27.1 °F 84% 30.38 in 10.0 mi NNW 6.9 mph - N/A   Overcast